Flag for U.S.A. Weather past 2 weeks in Billings, Montana, U.S.A.

Now
66 °F

Passing clouds.


Feels Like: 66 °F
Forecast: 58 / 92 °F
Wind: 6 mph from Northeast

Location: Billings Logan International Airport

Current Time: Aug 2, 2015 at 8:58:26 AM

Latest Report: Aug 2, 2015 at 7:53 AM


Visibility: 10 mi

Pressure: 29.92 "Hg (26.78 "Hg at 946m altitude)

Humidity: 50%

Dew point: 47 °F

Location of BillingsLocation

Historic Weather in Billings — Graph

°F

Billings temperature yesterday

Maximum temperature yesterday: 98 °F (at 3:53 PM)
Minimum temperature yesterday: 63 °F (at 4:53 AM)
Average temperature yesterday: 80 °F

Past Weeks' High & Low Weather Summary

 TemperatureHumidityPressure
High98 °F (Aug 1, 3:53 PM)90% (Jul 27, 4:53 PM)30.22 "Hg (Jul 27, 4:53 PM)
Low53 °F (Jul 27, 11:53 PM)7% (Aug 1, 1:53 PM)29.61 "Hg (Jul 22, 3:53 PM)
Average73 °F38%29.92 "Hg
* Reported Jul 18 7:53 AM — Aug 2 7:53 AM, Billings, Weather by CustomWeather, © 2015

Note: Actual official high and low records may vary slightly from our data, if they occured in-between our weather recording intervals... More about our weather records

Advertising

Billings weather history for previous 24 hours

 ConditionsComfort  
Time TempWeatherWind HumidityBarometerVisibility
7:53 AM
Sun, Aug 2
66 °FPassing clouds.6 mph50%29.92 "Hg10 mi
6:53 AM64 °FPassing clouds.8 mph37%29.90 "Hg10 mi
5:53 AM63 °FPassing clouds.10 mph38%29.88 "Hg10 mi
4:53 AM64 °FPassing clouds.7 mph35%29.84 "Hg10 mi
3:53 AM68 °FPassing clouds.6 mph30%29.83 "Hg10 mi
2:53 AM68 °FPassing clouds.8 mph36%29.83 "Hg10 mi
1:53 AM76 °FPassing clouds.7 mph22%29.81 "Hg10 mi
12:53 AM79 °FPassing clouds.6 mph19%29.81 "Hg10 mi
11:53 PM
Sat, Aug 1
80 °FPassing clouds.6 mph17%29.81 "Hg10 mi
10:53 PM80 °FPassing clouds.6 mph15%29.82 "Hg10 mi
9:53 PM83 °FPassing clouds.7 mph15%29.81 "Hg10 mi
8:53 PM82 °FPassing clouds.8 mph16%29.81 "Hg10 mi
7:53 PM92 °FPassing clouds.12 mph10%29.80 "Hg10 mi
6:53 PM95 °FPassing clouds.13 mph9%29.80 "Hg10 mi
5:53 PM95 °FScattered clouds.15 mph9%29.81 "Hg10 mi
4:53 PM95 °FPassing clouds.22 mph9%29.82 "Hg10 mi
3:53 PM98 °FScattered clouds.9 mph8%29.83 "Hg10 mi
2:53 PM96 °FPartly sunny.13 mph7%29.85 "Hg10 mi
1:53 PM96 °FBroken clouds.15 mph7%29.86 "Hg10 mi
12:53 PM93 °FScattered clouds.10 mph13%29.89 "Hg10 mi
11:53 AM86 °FScattered clouds.12 mph21%29.91 "Hg10 mi
10:53 AM80 °FScattered clouds.13 mph25%29.93 "Hg10 mi
9:53 AM74 °FScattered clouds.14 mph29%29.96 "Hg10 mi
8:53 AM67 °FPassing clouds.13 mph37%29.97 "Hg10 mi
Weather by CustomWeather, © 2015

See weather overviewHow to use our weather pages